Time,TemperatureF,DewpointF,PressureIn,WindDirection,WindDirectionDegrees,WindSpeedMPH,WindSpeedGustMPH,Humidity,HourlyPrecipIn,Conditions,Clouds,dailyrainin,SoftwareType,DateUTC
2013-03-01 00:07:00,33.6,30.0,29.58,NW,319,0.0,2.0,87,0.00,,,0.00,weatherlink.com 1.10,2013-03-01 05:07:00,
2013-03-01 00:22:00,33.5,30.0,29.58,NW,306,0.0,2.0,85,0.00,,,0.00,weatherlink.com 1.10,2013-03-01 05:22:00,
2013-03-01 00:37:00,33.4,30.0,29.58,NW,306,0.0,1.0,86,0.00,,,0.00,weatherlink.com 1.10,2013-03-01 05:37:00,
2013-03-01 00:52:00,33.2,29.0,29.58,NW,315,0.0,1.0,85,0.00,,,0.00,weatherlink.com 1.10,2013-03-01 05:52:00,
2013-03-01 01:07:00,32.9,29.0,29.58,NW,314,1.0,2.0,85,0.00,,,0.00,weatherlink.com 1.10,2013-03-01 06:07:00,
2013-03-01 01:22:00,32.7,29.0,29.58,North,9,1.0,3.0,86,0.00,,,0.00,weatherlink.com 1.10,2013-03-01 06:22:00,
2013-03-01 01:37:00,32.3,29.0,29.58,WNW,292,0.0,2.0,88,0.00,,,0.00,weatherlink.com 1.10,2013-03-01 06:37:00,
2013-03-01 01:52:00,31.8,28.0,29.59,West,262,2.0,3.0,87,0.00,,,0.00,weatherlink.com 1.10,2013-03-01 06:52:00,
2013-03-01 02:07:00,32.1,28.0,29.58,SE,131,2.0,2.0,86,0.00,,,0.00,weatherlink.com 1.10,2013-03-01 07:07:00,
2013-03-01 02:22:00,32.2,28.0,29.59,East,89,1.0,3.0,85,0.00,,,0.00,weatherlink.com 1.10,2013-03-01 07:22:00,
2013-03-01 02:37:00,31.9,28.0,29.58,NNE,33,0.0,3.0,86,0.00,,,0.00,weatherlink.com 1.10,2013-03-01 07:37:00,
2013-03-01 02:52:00,31.9,28.0,29.58,West,281,0.0,4.0,85,0.00,,,0.00,weatherlink.com 1.10,2013-03-01 07:52:00,
2013-03-01 03:07:00,31.8,28.0,29.58,East,101,1.0,2.0,85,0.00,,,0.00,weatherlink.com 1.10,2013-03-01 08:07:00,
2013-03-01 03:22:00,32.0,28.0,29.59,East,87,0.0,3.0,85,0.00,,,0.00,weatherlink.com 1.10,2013-03-01 08:22:00,
2013-03-01 03:37:00,31.7,28.0,29.59,SE,125,0.0,2.0,86,0.00,,,0.00,weatherlink.com 1.10,2013-03-01 08:37:00,
2013-03-01 03:52:00,31.6,28.0,29.59,North,351,1.0,3.0,85,0.00,,,0.00,weatherlink.com 1.10,2013-03-01 08:52:00,
2013-03-01 04:07:00,31.5,28.0,29.60,WNW,293,0.0,2.0,87,0.00,,,0.00,weatherlink.com 1.10,2013-03-01 09:07:00,
2013-03-01 04:22:00,31.5,28.0,29.61,ENE,74,2.0,3.0,86,0.00,,,0.00,weatherlink.com 1.10,2013-03-01 09:22:00,
2013-03-01 04:37:00,31.5,28.0,29.61,NE,43,0.0,1.0,87,0.00,,,0.00,weatherlink.com 1.10,2013-03-01 09:37:00,
2013-03-01 04:52:00,31.3,28.0,29.61,NNE,13,0.0,1.0,87,0.00,,,0.00,weatherlink.com 1.10,2013-03-01 09:52:00,
2013-03-01 05:08:00,31.4,27.0,29.61,NNW,332,1.0,2.0,84,0.00,,,0.00,weatherlink.com 1.10,2013-03-01 10:08:00,
2013-03-01 05:23:00,31.8,28.0,29.61,North,9,0.0,1.0,84,0.00,,,0.00,weatherlink.com 1.10,2013-03-01 10:23:00,
2013-03-01 05:38:00,32.1,28.0,29.61,North,5,0.0,1.0,85,0.00,,,0.00,weatherlink.com 1.10,2013-03-01 10:38:00,
2013-03-01 05:53:00,32.1,28.0,29.62,North,5,0.0,0.0,84,0.00,,,0.00,weatherlink.com 1.10,2013-03-01 10:53:00,
2013-03-01 06:08:00,32.4,27.0,29.62,NE,44,0.0,2.0,80,0.00,,,0.00,weatherlink.com 1.10,2013-03-01 11:08:00,
2013-03-01 06:23:00,32.6,27.0,29.62,WSW,238,0.0,3.0,81,0.00,,,0.00,weatherlink.com 1.10,2013-03-01 11:23:00,
2013-03-01 06:38:00,32.6,29.0,29.63,NW,326,0.0,2.0,85,0.00,,,0.00,weatherlink.com 1.10,2013-03-01 11:38:00,
2013-03-01 06:53:00,32.5,29.0,29.63,NW,317,0.0,0.0,85,0.00,,,0.00,weatherlink.com 1.10,2013-03-01 11:53:00,
2013-03-01 07:08:00,32.6,28.0,29.64,SW,219,0.0,2.0,84,0.00,,,0.00,weatherlink.com 1.10,2013-03-01 12:08:00,
2013-03-01 07:23:00,32.9,28.0,29.64,SW,220,0.0,0.0,83,0.00,,,0.00,weatherlink.com 1.10,2013-03-01 12:23:00,
2013-03-01 07:38:00,33.3,28.0,29.64,West,273,1.0,5.0,81,0.00,,,0.00,weatherlink.com 1.10,2013-03-01 12:38:00,
2013-03-01 07:53:00,33.7,28.0,29.65,West,274,0.0,2.0,79,0.00,,,0.00,weatherlink.com 1.10,2013-03-01 12:53:00,
2013-03-01 08:08:00,33.9,29.0,29.65,WNW,288,0.0,1.0,82,0.00,,,0.00,weatherlink.com 1.10,2013-03-01 13:08:00,
2013-03-01 08:23:00,33.9,30.0,29.65,WNW,288,1.0,1.0,84,0.00,,,0.00,weatherlink.com 1.10,2013-03-01 13:23:00,
2013-03-01 08:38:00,34.3,28.0,29.65,South,173,0.0,5.0,79,0.00,,,0.00,weatherlink.com 1.10,2013-03-01 13:38:00,
2013-03-01 08:53:00,34.5,29.0,29.65,West,261,0.0,5.0,79,0.00,,,0.00,weatherlink.com 1.10,2013-03-01 13:53:00,
2013-03-01 09:08:00,34.8,28.0,29.66,SW,221,0.0,3.0,77,0.00,,,0.00,weatherlink.com 1.10,2013-03-01 14:08:00,
2013-03-01 09:23:00,35.6,28.0,29.66,SSE,148,1.0,5.0,74,0.00,,,0.00,weatherlink.com 1.10,2013-03-01 14:23:00,
2013-03-01 09:38:00,35.4,28.0,29.66,SSE,157,1.0,3.0,73,0.00,,,0.00,weatherlink.com 1.10,2013-03-01 14:38:00,
2013-03-01 09:53:00,35.6,28.0,29.66,West,273,0.0,4.0,73,0.00,,,0.00,weatherlink.com 1.10,2013-03-01 14:53:00,
2013-03-01 10:08:00,36.0,28.0,29.66,ESE,117,1.0,3.0,73,0.00,,,0.00,weatherlink.com 1.10,2013-03-01 15:08:00,
2013-03-01 10:23:00,36.7,28.0,29.66,East,86,3.0,4.0,71,0.00,,,0.00,weatherlink.com 1.10,2013-03-01 15:23:00,
2013-03-01 10:38:00,36.6,27.0,29.67,East,101,2.0,5.0,69,0.00,,,0.00,weatherlink.com 1.10,2013-03-01 15:38:00,
2013-03-01 10:53:00,36.6,28.0,29.67,ENE,74,2.0,3.0,70,0.00,,,0.00,weatherlink.com 1.10,2013-03-01 15:53:00,
2013-03-01 11:09:00,36.5,28.0,29.67,SE,129,1.0,4.0,70,0.00,,,0.00,weatherlink.com 1.10,2013-03-01 16:09:00,
2013-03-01 11:23:00,36.3,27.0,29.67,East,99,0.0,4.0,70,0.00,,,0.00,weatherlink.com 1.10,2013-03-01 16:23:00,
2013-03-01 11:38:00,37.4,28.0,29.67,NE,44,1.0,4.0,68,0.00,,,0.00,weatherlink.com 1.10,2013-03-01 16:38:00,
2013-03-01 11:53:00,37.3,28.0,29.67,SSE,161,1.0,5.0,68,0.00,,,0.00,weatherlink.com 1.10,2013-03-01 16:53:00,
2013-03-01 12:08:00,37.6,27.0,29.67,East,88,0.0,3.0,66,0.00,,,0.00,weatherlink.com 1.10,2013-03-01 17:08:00,
2013-03-01 12:23:00,36.8,27.0,29.66,SE,137,0.0,3.0,69,0.00,,,0.00,weatherlink.com 1.10,2013-03-01 17:23:00,
2013-03-01 12:38:00,36.8,28.0,29.66,SSE,153,0.0,3.0,70,0.00,,,0.00,weatherlink.com 1.10,2013-03-01 17:38:00,
2013-03-01 12:53:00,37.4,26.0,29.66,NNE,15,0.0,6.0,64,0.00,,,0.00,weatherlink.com 1.10,2013-03-01 17:53:00,
2013-03-01 13:08:00,37.4,27.0,29.66,South,190,1.0,3.0,65,0.00,,,0.00,weatherlink.com 1.10,2013-03-01 18:08:00,
2013-03-01 13:23:00,37.1,27.0,29.66,ESE,116,0.0,2.0,68,0.00,,,0.00,weatherlink.com 1.10,2013-03-01 18:23:00,
2013-03-01 13:38:00,37.1,27.0,29.66,SSW,196,0.0,4.0,67,0.00,,,0.00,weatherlink.com 1.10,2013-03-01 18:38:00,
2013-03-01 13:53:00,36.9,26.0,29.66,East,90,1.0,3.0,66,0.00,,,0.00,weatherlink.com 1.10,2013-03-01 18:53:00,
2013-03-01 14:08:00,36.7,26.0,29.66,ESE,111,2.0,3.0,65,0.00,,,0.00,weatherlink.com 1.10,2013-03-01 19:08:00,
2013-03-01 14:23:00,36.8,26.0,29.66,SW,228,0.0,5.0,65,0.00,,,0.00,weatherlink.com 1.10,2013-03-01 19:23:00,
2013-03-01 14:38:00,37.0,26.0,29.66,East,87,1.0,3.0,64,0.00,,,0.00,weatherlink.com 1.10,2013-03-01 19:38:00,
2013-03-01 14:54:00,37.0,26.0,29.67,East,84,3.0,8.0,64,0.00,,,0.00,weatherlink.com 1.10,2013-03-01 19:54:00,
2013-03-01 15:09:00,37.1,26.0,29.67,South,171,1.0,4.0,65,0.00,,,0.00,weatherlink.com 1.10,2013-03-01 20:09:00,
2013-03-01 15:24:00,37.0,27.0,29.67,WSW,258,0.0,4.0,66,0.00,,,0.00,weatherlink.com 1.10,2013-03-01 20:24:00,
2013-03-01 15:39:00,36.7,28.0,29.67,SSW,205,3.0,3.0,70,0.00,,,0.00,weatherlink.com 1.10,2013-03-01 20:39:00,
2013-03-01 15:54:00,35.9,28.0,29.67,SE,126,3.0,4.0,72,0.00,,,0.00,weatherlink.com 1.10,2013-03-01 20:54:00,
2013-03-01 16:10:00,35.9,27.0,29.68,West,261,0.0,5.0,71,0.00,,,0.00,weatherlink.com 1.10,2013-03-01 21:10:00,
2013-03-01 16:24:00,35.6,27.0,29.68,SSE,153,1.0,7.0,71,0.00,,,0.00,weatherlink.com 1.10,2013-03-01 21:24:00,
2013-03-01 16:39:00,35.5,28.0,29.68,SE,129,1.0,6.0,73,0.00,,,0.00,weatherlink.com 1.10,2013-03-01 21:39:00,
2013-03-01 16:54:00,35.4,27.0,29.69,SSE,157,0.0,4.0,72,0.00,,,0.00,weatherlink.com 1.10,2013-03-01 21:54:00,
2013-03-01 17:09:00,35.1,27.0,29.69,WSW,248,2.0,11.0,73,0.00,,,0.00,weatherlink.com 1.10,2013-03-01 22:09:00,
2013-03-01 17:24:00,34.9,27.0,29.69,SE,130,3.0,5.0,73,0.00,,,0.00,weatherlink.com 1.10,2013-03-01 22:24:00,
2013-03-01 17:39:00,34.6,27.0,29.70,SE,144,2.0,6.0,73,0.00,,,0.00,weatherlink.com 1.10,2013-03-01 22:39:00,
2013-03-01 17:54:00,34.1,28.0,29.71,South,188,3.0,4.0,77,0.00,,,0.00,weatherlink.com 1.10,2013-03-01 22:54:00,
2013-03-01 18:09:00,33.8,27.0,29.71,ESE,118,2.0,7.0,75,0.00,,,0.00,weatherlink.com 1.10,2013-03-01 23:09:00,
2013-03-01 18:24:00,33.6,27.0,29.72,East,92,2.0,5.0,76,0.00,,,0.00,weatherlink.com 1.10,2013-03-01 23:24:00,
2013-03-01 18:39:00,33.5,27.0,29.72,SSW,200,2.0,5.0,76,0.00,,,0.00,weatherlink.com 1.10,2013-03-01 23:39:00,
2013-03-01 18:54:00,33.2,26.0,29.73,SE,129,2.0,5.0,76,0.00,,,0.00,weatherlink.com 1.10,2013-03-01 23:54:00,
2013-03-01 19:10:00,33.0,26.0,29.73,ESE,121,2.0,5.0,76,0.00,,,0.00,weatherlink.com 1.10,2013-03-02 00:10:00,
2013-03-01 19:24:00,32.8,26.0,29.73,SE,126,1.0,10.0,75,0.00,,,0.00,weatherlink.com 1.10,2013-03-02 00:24:00,
2013-03-01 19:39:00,32.6,26.0,29.74,ESE,117,0.0,3.0,76,0.00,,,0.00,weatherlink.com 1.10,2013-03-02 00:39:00,
2013-03-01 19:54:00,32.2,26.0,29.74,SW,218,2.0,3.0,77,0.00,,,0.00,weatherlink.com 1.10,2013-03-02 00:54:00,
2013-03-01 20:09:00,32.0,26.0,29.74,WSW,237,4.0,5.0,77,0.00,,,0.00,weatherlink.com 1.10,2013-03-02 01:09:00,
2013-03-01 20:24:00,31.6,25.0,29.74,East,90,3.0,5.0,77,0.00,,,0.00,weatherlink.com 1.10,2013-03-02 01:24:00,
2013-03-01 20:39:00,31.1,25.0,29.74,SE,125,1.0,4.0,77,0.00,,,0.00,weatherlink.com 1.10,2013-03-02 01:39:00,
2013-03-01 20:54:00,30.8,24.0,29.74,SE,124,2.0,4.0,77,0.00,,,0.00,weatherlink.com 1.10,2013-03-02 01:54:00,
2013-03-01 21:09:00,30.4,24.0,29.75,SSW,202,2.0,5.0,78,0.00,,,0.00,weatherlink.com 1.10,2013-03-02 02:09:00,
2013-03-01 21:24:00,30.2,24.0,29.75,SE,146,2.0,5.0,79,0.00,,,0.00,weatherlink.com 1.10,2013-03-02 02:24:00,
2013-03-01 21:39:00,30.2,24.0,29.75,ESE,117,1.0,5.0,78,0.00,,,0.00,weatherlink.com 1.10,2013-03-02 02:39:00,
2013-03-01 21:54:00,30.1,24.0,29.75,SE,134,3.0,5.0,78,0.00,,,0.00,weatherlink.com 1.10,2013-03-02 02:54:00,
2013-03-01 22:09:00,30.0,24.0,29.75,SSE,165,1.0,4.0,78,0.00,,,0.00,weatherlink.com 1.10,2013-03-02 03:09:00,
2013-03-01 22:24:00,29.9,24.0,29.75,ESE,110,0.0,7.0,77,0.00,,,0.00,weatherlink.com 1.10,2013-03-02 03:24:00,
2013-03-01 22:39:00,30.0,23.0,29.75,SSE,155,2.0,4.0,76,0.00,,,0.00,weatherlink.com 1.10,2013-03-02 03:39:00,
2013-03-01 22:54:00,30.0,23.0,29.75,ESE,105,2.0,9.0,74,0.00,,,0.00,weatherlink.com 1.10,2013-03-02 03:54:00,
2013-03-01 23:09:00,30.1,23.0,29.75,South,177,2.0,5.0,75,0.00,,,0.00,weatherlink.com 1.10,2013-03-02 04:09:00,
2013-03-01 23:24:00,30.0,23.0,29.75,East,90,2.0,5.0,75,0.00,,,0.00,weatherlink.com 1.10,2013-03-02 04:24:00,
2013-03-01 23:39:00,29.9,23.0,29.74,SSE,165,0.0,4.0,75,0.00,,,0.00,weatherlink.com 1.10,2013-03-02 04:39:00,
2013-03-01 23:55:00,29.9,23.0,29.75,SSW,201,1.0,6.0,76,0.00,,,0.00,weatherlink.com 1.10,2013-03-02 04:55:00,